Date,TemperatureHighF,TemperatureAvgF,TemperatureLowF,DewpointHighF,DewpointAvgF,DewpointLowF,HumidityHigh,HumidityAvg,HumidityLow,PressureMaxIn,PressureMinIn,WindSpeedMaxMPH,WindSpeedAvgMPH,GustSpeedMaxMPH,PrecipitationSumIn
2013-1-1,40,26,12,-100,-100,-100,0,0,100,0.00,40.00,0,-999,0,0.00
2013-1-2,41,29,18,-100,-100,-100,0,0,100,0.00,40.00,0,-999,0,0.00
2013-1-3,40,29,13,-100,-100,-100,0,0,100,0.00,40.00,0,-999,0,0.00
2013-1-4,37,31,28,-100,-100,-100,0,0,100,0.00,40.00,0,-999,0,0.06
2013-1-5,33,30,27,-100,-100,-100,0,0,100,0.00,40.00,0,-999,0,0.14
2013-1-6,40,32,29,-100,-100,-100,0,0,100,0.00,40.00,0,-999,0,0.16
2013-1-7,40,34,28,-100,-100,-100,0,0,100,0.00,40.00,0,-999,0,1.02
2013-1-8,37,34,31,-100,-100,-100,0,0,100,0.00,40.00,0,-999,0,0.72
2013-1-9,36,33,29,-100,-100,-100,0,0,100,0.00,40.00,0,-999,0,0.11
2013-1-10,32,29,27,-100,-100,-100,0,0,100,0.00,40.00,0,-999,0,0.01
2013-1-11,35,25,20,-100,-100,-100,0,0,100,0.00,40.00,0,-999,0,0.00
2013-1-12,34,22,12,-100,-100,-100,0,0,100,0.00,40.00,0,-999,0,0.00
2013-1-13,31,20,14,-100,-100,-100,0,0,100,0.00,40.00,0,-999,0,0.00
2013-1-14,25,18,10,-100,-100,-100,0,0,100,0.00,40.00,0,-999,0,0.00
2013-1-15,46,29,20,-100,-100,-100,0,0,100,0.00,40.00,0,-999,0,0.00
2013-1-16,46,29,13,-100,-100,-100,0,0,100,0.00,40.00,0,-999,0,0.00
2013-1-17,50,27,13,-100,-100,-100,0,0,100,0.00,40.00,0,-999,0,0.00
2013-1-18,45,29,13,-100,-100,-100,0,0,100,0.00,40.00,0,-999,0,0.00
2013-1-19,50,29,12,-100,-100,-100,0,0,100,0.00,40.00,0,-999,0,0.00
2013-1-20,53,30,13,-100,-100,-100,0,0,100,0.00,40.00,0,-999,0,0.00
2013-1-21,54,26,12,-100,-100,-100,0,0,100,0.00,40.00,0,-999,0,0.00
2013-1-22,38,28,12,-100,-100,-100,0,0,100,0.00,40.00,0,-999,0,0.00
2013-1-23,36,32,28,-100,-100,-100,0,0,100,0.00,40.00,0,-999,0,0.04
2013-1-24,43,34,27,-100,-100,-100,0,0,100,0.00,40.00,0,-999,0,0.30
2013-1-25,42,36,29,-100,-100,-100,0,0,100,0.00,40.00,0,-999,0,0.26
2013-1-26,46,34,27,-100,-100,-100,0,0,100,0.00,40.00,0,-999,0,0.08
2013-1-27,39,31,28,-100,-100,-100,0,0,100,0.00,40.00,0,-999,0,0.10
2013-1-28,34,32,28,-100,-100,-100,0,0,100,0.00,40.00,0,-999,0,0.23
2013-1-29,41,38,32,-100,-100,-100,0,0,100,0.00,40.00,0,-999,0,0.49
2013-1-30,45,40,36,-100,-100,-100,0,0,100,0.00,40.00,0,-999,0,0.67
2013-1-31,47,41,36,-100,-100,-100,0,0,100,0.00,40.00,0,-999,0,0.01